| time (UTC) | temp F | wind direction | speed knots | gust knots | rain 1hr in | rain 24hr in | rain mn in | humidity % | barometer mb |
| 20260505002124 | 63 | 224 | 7.8 | 9.6 | 0.00 | 0.00 | 0.00 | 78 | 1015.6 |
| 20260505001621 | 63 | 242 | 6.1 | 7.8 | 0.00 | 0.00 | 0.00 | 79 | 1015.9 |
| 20260505001118 | 63 | 263 | 4.3 | 7.0 | 0.00 | 0.00 | 0.00 | 80 | 1015.9 |
| 20260505000615 | 63 | 184 | 6.1 | 9.6 | 0.00 | 0.00 | 0.00 | 80 | 1015.9 |
| 20260505000113 | 63 | 248 | 8.7 | 12.2 | 0.00 | 0.00 | 0.00 | 79 | 1015.9 |
| 20260504235609 | 64 | 230 | 5.2 | 7.8 | 0.00 | 0.00 | 0.00 | 79 | 1015.9 |
| 20260504235106 | 64 | 192 | 6.1 | 7.8 | 0.00 | 0.00 | 0.00 | 78 | 1015.9 |
| 20260504234603 | 64 | 257 | 2.6 | 4.3 | 0.00 | 0.00 | 0.00 | 77 | 1015.9 |
| 20260504234100 | 64 | 192 | 3.5 | 5.2 | 0.00 | 0.00 | 0.00 | 77 | 1015.6 |
| 20260504233555 | 64 | 215 | 7.0 | 7.8 | 0.00 | 0.00 | 0.00 | 76 | 1015.9 |
| 20260504233052 | 65 | 174 | 5.2 | 7.8 | 0.00 | 0.00 | 0.00 | 74 | 1015.6 |
| 20260504232549 | 65 | 227 | 5.2 | 8.7 | 0.00 | 0.00 | 0.00 | 74 | 1015.6 |
| 20260504232047 | 66 | 240 | 6.1 | 11.3 | 0.00 | 0.00 | 0.00 | 71 | 1015.6 |
| 20260504231543 | 65 | 202 | 5.2 | 7.8 | 0.00 | 0.00 | 0.00 | 73 | 1015.6 |
| 20260504231039 | 66 | 250 | 10.4 | 13.9 | 0.00 | 0.00 | 0.00 | 73 | 1015.6 |
| 20260504230536 | 65 | 209 | 6.1 | 7.8 | 0.00 | 0.00 | 0.00 | 73 | 1015.6 |
| 20260504230035 | 66 | 182 | 7.0 | 9.6 | 0.00 | 0.00 | 0.00 | 73 | 1015.6 |
| 20260504225531 | 65 | 247 | 0.0 | 0.0 | 0.00 | 0.00 | 0.00 | 73 | 1015.6 |
| 20260504225029 | 65 | 257 | 7.8 | 11.3 | 0.00 | 0.00 | 0.00 | 75 | 1015.6 |
| 20260504224525 | 66 | 184 | 12.2 | 14.8 | 0.00 | 0.00 | 0.00 | 74 | 1015.9 |
| 20260504224022 | 66 | 244 | 9.6 | 13.0 | 0.00 | 0.00 | 0.00 | 73 | 1015.9 |
| 20260504223519 | 66 | 182 | 5.2 | 7.0 | 0.00 | 0.00 | 0.00 | 76 | 1015.9 |
| 20260504223015 | 66 | 158 | 9.6 | 12.2 | 0.00 | 0.00 | 0.00 | 75 | 1015.9 |
| 20260504222512 | 66 | 237 | 11.3 | 13.9 | 0.00 | 0.00 | 0.00 | 74 | 1016.2 |
| 20260504222009 | 67 | 147 | 7.8 | 11.3 | 0.00 | 0.00 | 0.00 | 74 | 1015.9 |
| 20260504221507 | 66 | 233 | 7.8 | 9.6 | 0.00 | 0.00 | 0.00 | 74 | 1016.2 |
| 20260504221003 | 67 | 197 | 7.8 | 11.3 | 0.00 | 0.00 | 0.00 | 72 | 1015.9 |
| 20260504220500 | 67 | 183 | 7.8 | 9.6 | 0.00 | 0.00 | 0.00 | 73 | 1016.2 |
| 20260504215956 | 67 | 167 | 3.5 | 6.1 | 0.00 | 0.00 | 0.00 | 71 | 1016.2 |
| 20260504215453 | 67 | 215 | 9.6 | 12.2 | 0.00 | 0.00 | 0.00 | 72 | 1016.2 |
| 20260504214950 | 67 | 220 | 7.8 | 9.6 | 0.00 | 0.00 | 0.00 | 71 | 1016.2 |
| 20260504214446 | 67 | 180 | 7.0 | 11.3 | 0.00 | 0.00 | 0.00 | 72 | 1016.2 |
| 20260504213943 | 68 | 252 | 10.4 | 13.9 | 0.00 | 0.00 | 0.00 | 71 | 1016.6 |
| 20260504213439 | 68 | 252 | 5.2 | 7.8 | 0.00 | 0.00 | 0.00 | 70 | 1016.6 |
| 20260504212937 | 68 | 243 | 3.5 | 6.1 | 0.00 | 0.00 | 0.00 | 71 | 1016.6 |
| 20260504212432 | 68 | 212 | 7.8 | 8.7 | 0.00 | 0.00 | 0.00 | 71 | 1016.6 |
| 20260504211930 | 67 | 202 | 7.0 | 9.6 | 0.00 | 0.00 | 0.00 | 72 | 1016.6 |
| 20260504211426 | 67 | 225 | 6.1 | 7.0 | 0.00 | 0.00 | 0.00 | 72 | 1016.6 |
| 20260504210924 | 68 | 170 | 7.0 | 8.7 | 0.00 | 0.00 | 0.00 | 72 | 1016.6 |
| 20260504210421 | 67 | 150 | 8.7 | 9.6 | 0.00 | 0.00 | 0.00 | 73 | 1016.9 |
| 20260504205918 | 66 | 226 | 4.3 | 6.1 | 0.00 | 0.00 | 0.00 | 73 | 1016.6 |
| 20260504205415 | 67 | 161 | 5.2 | 7.0 | 0.00 | 0.00 | 0.00 | 72 | 1016.6 |
| 20260504204913 | 67 | 252 | 7.0 | 8.7 | 0.00 | 0.00 | 0.00 | 71 | 1016.6 |
| 20260504204412 | 68 | 252 | 6.1 | 7.8 | 0.00 | 0.00 | 0.00 | 74 | 1016.6 |
| 20260504203911 | 68 | 235 | 7.8 | 8.7 | 0.00 | 0.00 | 0.00 | 72 | 1016.6 |
| 20260504203408 | 68 | 268 | 1.7 | 5.2 | 0.00 | 0.00 | 0.00 | 73 | 1016.9 |
| 20260504202903 | 68 | 246 | 7.8 | 9.6 | 0.00 | 0.00 | 0.00 | 73 | 1016.6 |
| 20260504202400 | 67 | 264 | 9.6 | 11.3 | 0.00 | 0.00 | 0.00 | 72 | 1016.6 |
| 20260504201856 | 67 | 242 | 7.8 | 8.7 | 0.00 | 0.00 | 0.00 | 72 | 1016.6 |
| 20260504201354 | 67 | 239 | 10.4 | 13.9 | 0.00 | 0.00 | 0.00 | 73 | 1016.6 |
| 20260504200851 | 66 | 242 | 5.2 | 7.0 | 0.00 | 0.00 | 0.00 | 74 | 1016.6 |
| 20260504200348 | 66 | 214 | 5.2 | 8.7 | 0.00 | 0.00 | 0.00 | 74 | 1016.6 |
| 20260504195845 | 67 | 253 | 6.1 | 8.7 | 0.00 | 0.00 | 0.00 | 72 | 1016.6 |
| 20260504195340 | 67 | 250 | 7.0 | 12.2 | 0.00 | 0.00 | 0.00 | 70 | 1016.6 |
| 20260504194837 | 68 | 258 | 6.1 | 7.8 | 0.00 | 0.00 | 0.00 | 67 | 1016.6 |
| 20260504194333 | 67 | 246 | 7.8 | 8.7 | 0.00 | 0.00 | 0.00 | 67 | 1016.6 |
| 20260504193829 | 68 | 241 | 7.0 | 7.8 | 0.00 | 0.00 | 0.00 | 64 | 1016.9 |
| 20260504193327 | 67 | 228 | 7.8 | 9.6 | 0.00 | 0.00 | 0.00 | 63 | 1016.9 |
| 20260504192825 | 68 | 248 | 8.7 | 11.3 | 0.00 | 0.00 | 0.00 | 67 | 1016.9 |
| 20260504192323 | 67 | 231 | 6.1 | 7.8 | 0.00 | 0.00 | 0.00 | 65 | 1016.9 |
| 20260504191821 | 68 | 167 | 7.0 | 8.7 | 0.00 | 0.00 | 0.00 | 64 | 1016.9 |
| 20260504191318 | 68 | 255 | 6.1 | 7.8 | 0.00 | 0.00 | 0.00 | 62 | 1016.9 |
| 20260504190814 | 67 | 191 | 4.3 | 5.2 | 0.00 | 0.00 | 0.00 | 63 | 1016.9 |
| 20260504190310 | 66 | 189 | 1.7 | 7.0 | 0.00 | 0.00 | 0.00 | 65 | 1016.6 |
| 20260504185807 | 66 | 164 | 4.3 | 7.0 | 0.00 | 0.00 | 0.00 | 69 | 1016.6 |
| 20260504185304 | 67 | 176 | 1.7 | 5.2 | 0.00 | 0.00 | 0.00 | 67 | 1016.9 |
| 20260504184800 | 67 | 251 | 7.0 | 12.2 | 0.00 | 0.00 | 0.00 | 68 | 1016.9 |
| 20260504184256 | 66 | 235 | 7.8 | 9.6 | 0.00 | 0.00 | 0.00 | 69 | 1017.3 |
| 20260504183752 | 66 | 202 | 3.5 | 5.2 | 0.00 | 0.00 | 0.00 | 70 | 1016.9 |
| 20260504183249 | 65 | 241 | 7.0 | 7.8 | 0.00 | 0.00 | 0.00 | 72 | 1016.9 |
| 20260504182747 | 65 | 220 | 6.1 | 8.7 | 0.00 | 0.00 | 0.00 | 70 | 1016.9 |
| 20260504182244 | 65 | 192 | 8.7 | 12.2 | 0.00 | 0.00 | 0.00 | 71 | 1016.9 |
| 20260504181741 | 65 | 218 | 6.1 | 7.8 | 0.00 | 0.00 | 0.00 | 71 | 1016.9 |
| 20260504181238 | 65 | 186 | 5.2 | 7.8 | 0.00 | 0.00 | 0.00 | 70 | 1016.9 |
| 20260504180738 | 64 | 231 | 3.5 | 8.7 | 0.00 | 0.00 | 0.00 | 73 | 1017.3 |
| 20260504180236 | 65 | 159 | 1.7 | 7.0 | 0.00 | 0.00 | 0.00 | 70 | 1016.9 |
| 20260504175733 | 65 | 181 | 0.0 | 0.0 | 0.00 | 0.00 | 0.00 | 73 | 1017.3 |
| 20260504175229 | 65 | 243 | 5.2 | 7.0 | 0.00 | 0.00 | 0.00 | 69 | 1016.9 |
| 20260504174728 | 64 | 197 | 5.2 | 7.8 | 0.00 | 0.00 | 0.00 | 71 | 1016.9 |
| 20260504174225 | 65 | 170 | 6.1 | 7.8 | 0.00 | 0.00 | 0.00 | 71 | 1016.9 |
| 20260504173721 | 65 | 205 | 4.3 | 6.1 | 0.00 | 0.00 | 0.00 | 72 | 1016.9 |
| 20260504173219 | 65 | 239 | 0.0 | 1.7 | 0.00 | 0.00 | 0.00 | 73 | 1016.9 |
| 20260504172715 | 65 | 237 | 4.3 | 8.7 | 0.00 | 0.00 | 0.00 | 70 | 1016.9 |
| 20260504172211 | 66 | 258 | 4.3 | 6.1 | 0.00 | 0.00 | 0.00 | 70 | 1016.9 |
| 20260504171708 | 66 | 224 | 0.0 | 0.0 | 0.00 | 0.00 | 0.00 | 70 | 1016.9 |
| 20260504171205 | 65 | 216 | 0.0 | 0.0 | 0.00 | 0.00 | 0.00 | 70 | 1016.6 |
| 20260504170702 | 65 | 241 | 0.0 | 0.0 | 0.00 | 0.00 | 0.00 | 70 | 1016.6 |
| 20260504170200 | 65 | 214 | 1.7 | 6.1 | 0.00 | 0.00 | 0.00 | 69 | 1016.6 |
| 20260504160118 | 62 | 203 | 2.6 | 4.3 | 0.00 | 0.00 | 0.00 | 77 | 1016.2 |
| 20260504151045 | 60 | 204 | 0.0 | 0.0 | 0.00 | 0.00 | 0.00 | 78 | 1016.2 |
| 20260504150542 | 60 | 211 | 0.0 | 0.0 | 0.00 | 0.00 | 0.00 | 78 | 1016.2 |
| 20260504141008 | 58 | 269 | 3.5 | 4.3 | 0.00 | 0.00 | 0.00 | 85 | 1015.9 |
| 20260504140505 | 59 | 257 | 7.0 | 7.8 | 0.00 | 0.00 | 0.00 | 85 | 1015.6 |
| 20260504130429 | 58 | 259 | 0.0 | 0.0 | 0.00 | 0.00 | 0.00 | 83 | 1015.6 |
| 20260504110317 | 59 | 276 | 0.0 | 0.0 | 0.00 | 0.00 | 0.00 | 82 | 1015.6 |
| 20260504100234 | 59 | 239 | 0.0 | 0.0 | 0.00 | 0.00 | 0.00 | 83 | 1015.6 |
| 20260504081628 | 59 | 295 | 0.0 | 0.0 | 0.00 | 0.00 | 0.00 | 86 | 1016.2 |
| 20260504081123 | 59 | 288 | 0.0 | 0.0 | 0.00 | 0.00 | 0.00 | 86 | 1016.6 |
| 20260504080620 | 59 | 238 | 0.0 | 0.0 | 0.00 | 0.00 | 0.00 | 85 | 1016.6 |
| 20260504080117 | 59 | 239 | 0.0 | 0.0 | 0.00 | 0.00 | 0.00 | 85 | 1016.2 |
| 20260504050433 | 60 | 256 | 0.0 | 0.0 | 0.00 | 0.00 | 0.00 | 85 | 1015.6 |
| 20260504045930 | 60 | 264 | 0.0 | 0.0 | 0.00 | 0.00 | 0.00 | 85 | 1015.9 |
| 20260504045426 | 60 | 239 | 0.0 | 0.0 | 0.00 | 0.00 | 0.00 | 85 | 1015.6 |
| 20260504044922 | 60 | 240 | 0.0 | 0.0 | 0.00 | 0.00 | 0.00 | 85 | 1015.9 |
| 20260504044420 | 60 | 218 | 0.0 | 0.0 | 0.00 | 0.00 | 0.00 | 85 | 1015.9 |
| 20260504043917 | 60 | 238 | 0.0 | 0.0 | 0.00 | 0.00 | 0.00 | 85 | 1015.9 |
| 20260504043414 | 60 | 210 | 0.0 | 0.0 | 0.00 | 0.00 | 0.00 | 85 | 1015.9 |
| 20260504042911 | 60 | 229 | 0.0 | 0.0 | 0.00 | 0.00 | 0.00 | 85 | 1015.6 |
| 20260504042408 | 60 | 248 | 0.0 | 0.0 | 0.00 | 0.00 | 0.00 | 86 | 1015.9 |
| 20260504041904 | 60 | 223 | 0.0 | 0.0 | 0.00 | 0.00 | 0.00 | 86 | 1015.9 |
| 20260504041400 | 60 | 235 | 0.0 | 0.0 | 0.00 | 0.00 | 0.00 | 85 | 1015.6 |
| 20260504040856 | 60 | 230 | 0.0 | 0.0 | 0.00 | 0.00 | 0.00 | 85 | 1015.6 |
| 20260504040354 | 60 | 159 | 0.0 | 0.0 | 0.00 | 0.00 | 0.00 | 85 | 1015.9 |
| 20260504035849 | 60 | 245 | 0.0 | 0.0 | 0.00 | 0.00 | 0.00 | 84 | 1015.6 |
| 20260504035347 | 60 | 232 | 0.0 | 0.9 | 0.00 | 0.00 | 0.00 | 84 | 1015.6 |
| 20260504034844 | 60 | 178 | 5.2 | 6.1 | 0.00 | 0.00 | 0.00 | 84 | 1015.6 |
| 20260504034342 | 60 | 245 | 0.0 | 0.0 | 0.00 | 0.00 | 0.00 | 83 | 1015.2 |
| 20260504033839 | 60 | 262 | 3.5 | 4.3 | 0.00 | 0.00 | 0.00 | 83 | 1015.6 |
| 20260504033337 | 61 | 179 | 0.0 | 0.0 | 0.00 | 0.00 | 0.00 | 83 | 1015.2 |
| 20260504032833 | 61 | 252 | 0.0 | 0.9 | 0.00 | 0.00 | 0.00 | 83 | 1015.2 |
| 20260504032331 | 61 | 225 | 0.0 | 0.0 | 0.00 | 0.00 | 0.00 | 83 | 1015.2 |
| 20260504031827 | 61 | 230 | 0.0 | 0.0 | 0.00 | 0.00 | 0.00 | 82 | 1014.9 |
| 20260504031324 | 61 | 229 | 0.0 | 0.9 | 0.00 | 0.00 | 0.00 | 82 | 1015.2 |
| 20260504030820 | 61 | 157 | 0.0 | 0.0 | 0.00 | 0.00 | 0.00 | 81 | 1014.9 |
| 20260504030318 | 61 | 171 | 0.0 | 0.0 | 0.00 | 0.00 | 0.00 | 82 | 1014.9 |
| 20260504025814 | 61 | 239 | 0.0 | 0.0 | 0.00 | 0.00 | 0.00 | 82 | 1014.9 |
| 20260504025311 | 61 | 239 | 0.0 | 0.0 | 0.00 | 0.00 | 0.00 | 82 | 1014.9 |
| 20260504024808 | 61 | 236 | 0.0 | 0.0 | 0.00 | 0.00 | 0.00 | 82 | 1014.6 |
| 20260504024304 | 61 | 233 | 0.0 | 0.0 | 0.00 | 0.00 | 0.00 | 82 | 1014.6 |
| 20260504023801 | 61 | 177 | 0.0 | 0.0 | 0.00 | 0.00 | 0.00 | 81 | 1014.6 |
| 20260504023257 | 61 | 230 | 0.9 | 4.3 | 0.00 | 0.00 | 0.00 | 81 | 1014.9 |
| 20260504022753 | 61 | 226 | 0.0 | 0.0 | 0.00 | 0.00 | 0.00 | 82 | 1014.9 |
| 20260504022249 | 61 | 258 | 4.3 | 7.8 | 0.00 | 0.00 | 0.00 | 81 | 1014.6 |
| 20260504021747 | 61 | 244 | 7.0 | 7.0 | 0.00 | 0.00 | 0.00 | 81 | 1014.6 |
| 20260504021244 | 61 | 170 | 4.3 | 6.1 | 0.00 | 0.00 | 0.00 | 81 | 1014.6 |
| 20260504020741 | 61 | 237 | 0.9 | 2.6 | 0.00 | 0.00 | 0.00 | 81 | 1014.6 |
| 20260504020237 | 61 | 243 | 0.9 | 4.3 | 0.00 | 0.00 | 0.00 | 81 | 1014.6 |
| 20260504015733 | 61 | 234 | 0.0 | 0.0 | 0.00 | 0.00 | 0.00 | 81 | 1014.6 |
| 20260504015230 | 61 | 248 | 8.7 | 11.3 | 0.00 | 0.00 | 0.00 | 81 | 1014.2 |
| 20260504014726 | 62 | 266 | 0.0 | 0.0 | 0.00 | 0.00 | 0.00 | 81 | 1014.2 |
| 20260504014223 | 62 | 226 | 0.0 | 0.0 | 0.00 | 0.00 | 0.00 | 81 | 1014.2 |
| 20260504013721 | 61 | 234 | 4.3 | 7.0 | 0.00 | 0.00 | 0.00 | 81 | 1014.2 |
| 20260504013218 | 62 | 273 | 0.0 | 0.0 | 0.00 | 0.00 | 0.00 | 81 | 1014.2 |
| 20260504012714 | 62 | 228 | 3.5 | 5.2 | 0.00 | 0.00 | 0.00 | 81 | 1013.9 |
| 20260504012212 | 62 | 245 | 8.7 | 9.6 | 0.00 | 0.00 | 0.00 | 80 | 1014.2 |
| 20260504011709 | 62 | 233 | 0.0 | 0.0 | 0.00 | 0.00 | 0.00 | 80 | 1014.2 |
| 20260504011205 | 62 | 255 | 6.1 | 9.6 | 0.00 | 0.00 | 0.00 | 80 | 1014.2 |
| 20260504010702 | 62 | 238 | 3.5 | 7.0 | 0.00 | 0.00 | 0.00 | 80 | 1013.9 |
| 20260504010157 | 62 | 225 | 0.0 | 0.0 | 0.00 | 0.00 | 0.00 | 80 | 1014.2 |
| 20260504005654 | 63 | 226 | 3.5 | 6.1 | 0.00 | 0.00 | 0.00 | 79 | 1014.2 |
| 20260504005151 | 62 | 200 | 1.7 | 1.7 | 0.00 | 0.00 | 0.00 | 80 | 1013.9 |
| 20260504004649 | 62 | 232 | 0.0 | 0.0 | 0.00 | 0.00 | 0.00 | 80 | 1013.9 |
| 20260504004146 | 62 | 243 | 0.0 | 0.0 | 0.00 | 0.00 | 0.00 | 81 | 1013.9 |
| 20260504003642 | 62 | 255 | 7.0 | 7.8 | 0.00 | 0.00 | 0.00 | 81 | 1014.2 |
| 20260504003139 | 63 | 242 | 4.3 | 6.1 | 0.00 | 0.00 | 0.00 | 80 | 1013.9 |
| 20260504002636 | 63 | 185 | 0.0 | 0.0 | 0.00 | 0.00 | 0.00 | 80 | 1013.9 |